{"data":{"norad_id":58105,"intl_designator":"2023-161J","name":"STARLINK-30616","alt_names":[],"object_type":"PAYLOAD","status":"ACTIVE","operator":null,"country":"US","launch_date":"2023-10-21","launch_site_code":"AFWTR","launch_vehicle":null,"mission":null,"orbit_class":"UNKNOWN","rcs_meters":null,"size_class":null,"mass_kg":null,"dimensions":null,"purposes":["comms"],"wikipedia_slug":null,"has_3d_model":false,"image_url":null,"decayed_at":null,"tle_current":{"epoch":"2026-09-20T10:48:20.132928Z","epoch_age_seconds":144808,"freshness":"FRESH","line1":"1 58105U 23161J   26263.45023302  .00000796  00000+0  34682-4 0  9998","line2":"2 58105  53.1610 324.1591 0001208  98.1093 262.0047 15.34397495164465","mean_motion":15.34397495,"eccentricity":0.0001208,"inclination_deg":53.161,"raan_deg":324.1591,"arg_perigee_deg":98.1093,"mean_anomaly_deg":262.0047,"bstar":3.4682e-5,"rev_number":16446,"period_min":93.847911293677,"perigee_km":461.88431120472,"apogee_km":463.53706000556,"semimajor_km":6840.8476856051,"source":"CELESTRAK","updated_at":"2026-09-21T09:00:33.787719Z"}}}